Time,TemperatureF,DewpointF,PressureIn,WindDirection,WindDirectionDegrees,WindSpeedMPH,WindSpeedGustMPH,Humidity,HourlyPrecipIn,Conditions,Clouds,dailyrainin,SoftwareType,DateUTC
2013-07-24 00:02:00,65.0,-99.9,-100.00,North,356,23.0,31.0,-999,-99.99,,,-99.99,,2013-07-24 04:02:00,
2013-07-24 00:22:00,65.0,-99.9,-100.00,North,7,13.0,0.0,-999,-99.99,,,-99.99,,2013-07-24 04:22:00,
2013-07-24 00:32:00,65.0,-99.9,-100.00,North,7,13.0,0.0,-999,-99.99,,,-99.99,,2013-07-24 04:32:00,
2013-07-24 00:40:00,63.0,-99.9,-100.00,NNE,16,10.0,24.0,-999,-99.99,,,-99.99,,2013-07-24 04:40:00,
2013-07-24 00:44:00,65.0,-99.9,-100.00,North,7,13.0,0.0,-999,-99.99,,,-99.99,,2013-07-24 04:44:00,
2013-07-24 00:53:00,65.0,-99.9,-100.00,North,7,13.0,0.0,-999,-99.99,,,-99.99,,2013-07-24 04:53:00,
2013-07-24 01:02:00,63.0,-99.9,-100.00,NNE,16,10.0,24.0,-999,-99.99,,,-99.99,,2013-07-24 05:02:00,
2013-07-24 01:11:00,63.0,-99.9,-100.00,NNE,16,10.0,24.0,-999,-99.99,,,-99.99,,2013-07-24 05:11:00,
2013-07-24 01:22:00,63.0,-99.9,-100.00,NNE,16,10.0,24.0,-999,-99.99,,,-99.99,,2013-07-24 05:22:00,
2013-07-24 01:33:00,63.0,-99.9,-100.00,NNE,16,10.0,24.0,-999,-99.99,,,-99.99,,2013-07-24 05:33:00,
2013-07-24 02:01:00,60.0,-99.9,-100.00,NNE,19,9.0,22.0,-999,-99.99,,,-99.99,,2013-07-24 06:01:00,
2013-07-24 02:12:00,60.0,-99.9,-100.00,NNE,19,9.0,22.0,-999,-99.99,,,-99.99,,2013-07-24 06:12:00,
2013-07-24 02:24:00,60.0,-99.9,-100.00,NNE,19,9.0,22.0,-999,-99.99,,,-99.99,,2013-07-24 06:24:00,
2013-07-24 02:35:00,60.0,-99.9,-100.00,NNE,19,9.0,22.0,-999,-99.99,,,-99.99,,2013-07-24 06:35:00,
2013-07-24 02:43:00,60.0,-99.9,-100.00,NNE,19,9.0,22.0,-999,-99.99,,,-99.99,,2013-07-24 06:43:00,
2013-07-24 02:53:00,60.0,-99.9,-100.00,NNE,19,9.0,22.0,-999,-99.99,,,-99.99,,2013-07-24 06:53:00,
2013-07-24 03:02:00,60.0,-99.9,-100.00,NNE,19,9.0,22.0,-999,-99.99,,,-99.99,,2013-07-24 07:02:00,
2013-07-24 03:12:00,60.0,-99.9,-100.00,NNE,19,9.0,22.0,-999,-99.99,,,-99.99,,2013-07-24 07:12:00,
2013-07-24 03:22:00,59.0,-99.9,-100.00,North,7,10.0,18.0,-999,-99.99,,,-99.99,,2013-07-24 07:22:00,
2013-07-24 03:32:00,59.0,-99.9,-100.00,North,7,10.0,18.0,-999,-99.99,,,-99.99,,2013-07-24 07:32:00,
2013-07-24 03:43:00,59.0,-99.9,-100.00,North,7,10.0,18.0,-999,-99.99,,,-99.99,,2013-07-24 07:43:00,
2013-07-24 03:53:00,59.0,-99.9,-100.00,North,7,10.0,18.0,-999,-99.99,,,-99.99,,2013-07-24 07:53:00,
2013-07-24 04:02:00,58.0,-99.9,-100.00,NNE,23,6.0,19.0,-999,-99.99,,,-99.99,,2013-07-24 08:02:00,
2013-07-24 04:12:00,58.0,-99.9,-100.00,NNE,23,6.0,19.0,-999,-99.99,,,-99.99,,2013-07-24 08:12:00,
2013-07-24 04:22:00,58.0,-99.9,-100.00,NNE,23,6.0,19.0,-999,-99.99,,,-99.99,,2013-07-24 08:22:00,
2013-07-24 04:32:00,58.0,-99.9,-100.00,NNE,23,6.0,19.0,-999,-99.99,,,-99.99,,2013-07-24 08:32:00,
2013-07-24 04:43:00,58.0,-99.9,-100.00,NNE,23,6.0,19.0,-999,-99.99,,,-99.99,,2013-07-24 08:43:00,
2013-07-24 04:52:00,58.0,-99.9,-100.00,NNE,23,6.0,19.0,-999,-99.99,,,-99.99,,2013-07-24 08:52:00,
2013-07-24 05:02:00,57.0,-99.9,-100.00,NNE,24,4.0,15.0,-999,-99.99,,,-99.99,,2013-07-24 09:02:00,
2013-07-24 05:12:00,57.0,-99.9,-100.00,NNE,24,4.0,15.0,-999,-99.99,,,-99.99,,2013-07-24 09:12:00,
2013-07-24 05:22:00,57.0,-99.9,-100.00,NNE,24,4.0,15.0,-999,-99.99,,,-99.99,,2013-07-24 09:22:00,
2013-07-24 05:32:00,57.0,-99.9,-100.00,NNE,24,4.0,15.0,-999,-99.99,,,-99.99,,2013-07-24 09:32:00,
2013-07-24 05:43:00,57.0,-99.9,-100.00,NNE,24,4.0,15.0,-999,-99.99,,,-99.99,,2013-07-24 09:43:00,
2013-07-24 05:53:00,57.0,-99.9,-100.00,NNE,24,4.0,15.0,-999,-99.99,,,-99.99,,2013-07-24 09:53:00,
2013-07-24 06:02:00,57.0,-99.9,-100.00,NNE,24,4.0,15.0,-999,-99.99,,,-99.99,,2013-07-24 10:02:00,
2013-07-24 06:12:00,57.0,-99.9,-100.00,NNE,24,4.0,15.0,-999,-99.99,,,-99.99,,2013-07-24 10:12:00,
2013-07-24 06:53:00,56.0,-99.9,-100.00,NNE,25,3.0,10.0,-999,-99.99,,,-99.99,,2013-07-24 10:53:00,
2013-07-24 07:02:00,56.0,-99.9,-100.00,NNE,25,3.0,10.0,-999,-99.99,,,-99.99,,2013-07-24 11:02:00,
2013-07-24 07:22:00,57.0,-99.9,-100.00,NNE,17,5.0,11.0,-999,-99.99,,,-99.99,,2013-07-24 11:22:00,
2013-07-24 07:44:00,57.0,-99.9,-100.00,NNE,17,5.0,11.0,-999,-99.99,,,-99.99,,2013-07-24 11:44:00,
2013-07-24 07:52:00,57.0,-99.9,-100.00,NNE,17,5.0,11.0,-999,-99.99,,,-99.99,,2013-07-24 11:52:00,
2013-07-24 08:12:00,57.0,-99.9,-100.00,NNE,19,3.0,10.0,-999,-99.99,,,-99.99,,2013-07-24 12:12:00,
2013-07-24 08:22:00,57.0,-99.9,-100.00,NNE,19,3.0,10.0,-999,-99.99,,,-99.99,,2013-07-24 12:22:00,
2013-07-24 08:32:00,57.0,-99.9,-100.00,NNE,19,3.0,10.0,-999,-99.99,,,-99.99,,2013-07-24 12:32:00,
2013-07-24 08:42:00,57.0,-99.9,-100.00,NNE,19,3.0,10.0,-999,-99.99,,,-99.99,,2013-07-24 12:42:00,
2013-07-24 08:52:00,57.0,-99.9,-100.00,NNE,19,3.0,10.0,-999,-99.99,,,-99.99,,2013-07-24 12:52:00,
2013-07-24 09:02:00,57.0,-99.9,-100.00,NNE,19,3.0,10.0,-999,-99.99,,,-99.99,,2013-07-24 13:02:00,
2013-07-24 09:22:00,58.0,-99.9,-100.00,North,1,8.0,11.0,-999,-99.99,,,-99.99,,2013-07-24 13:22:00,
2013-07-24 09:32:00,58.0,-99.9,-100.00,North,1,8.0,11.0,-999,-99.99,,,-99.99,,2013-07-24 13:32:00,
2013-07-24 09:43:00,58.0,-99.9,-100.00,North,1,8.0,11.0,-999,-99.99,,,-99.99,,2013-07-24 13:43:00,
2013-07-24 09:53:00,58.0,-99.9,-100.00,North,1,8.0,11.0,-999,-99.99,,,-99.99,,2013-07-24 13:53:00,
2013-07-24 10:02:00,58.0,-99.9,-100.00,North,353,8.0,15.0,-999,-99.99,,,-99.99,,2013-07-24 14:02:00,
2013-07-24 10:12:00,58.0,-99.9,-100.00,North,353,8.0,15.0,-999,-99.99,,,-99.99,,2013-07-24 14:12:00,
2013-07-24 10:22:00,58.0,-99.9,-100.00,North,353,8.0,15.0,-999,-99.99,,,-99.99,,2013-07-24 14:22:00,
2013-07-24 10:43:00,58.0,-99.9,-100.00,North,353,8.0,15.0,-999,-99.99,,,-99.99,,2013-07-24 14:43:00,
2013-07-24 10:55:00,58.0,-99.9,-100.00,North,353,8.0,15.0,-999,-99.99,,,-99.99,,2013-07-24 14:55:00,
2013-07-24 11:03:00,60.0,-99.9,-100.00,NNW,347,6.0,12.0,-999,-99.99,,,-99.99,,2013-07-24 15:03:00,
2013-07-24 11:12:00,60.0,-99.9,-100.00,NNW,347,6.0,12.0,-999,-99.99,,,-99.99,,2013-07-24 15:12:00,
2013-07-24 11:22:00,60.0,-99.9,-100.00,NNW,347,6.0,12.0,-999,-99.99,,,-99.99,,2013-07-24 15:22:00,
2013-07-24 11:33:00,60.0,-99.9,-100.00,NNW,347,6.0,12.0,-999,-99.99,,,-99.99,,2013-07-24 15:33:00,
2013-07-24 11:43:00,60.0,-99.9,-100.00,NNW,347,6.0,12.0,-999,-99.99,,,-99.99,,2013-07-24 15:43:00,
2013-07-24 11:53:00,60.0,-99.9,-100.00,NNW,347,6.0,12.0,-999,-99.99,,,-99.99,,2013-07-24 15:53:00,
2013-07-24 12:12:00,61.0,-99.9,-100.00,NNW,348,7.0,10.0,-999,-99.99,,,-99.99,,2013-07-24 16:12:00,
2013-07-24 12:23:00,61.0,-99.9,-100.00,NNW,348,7.0,10.0,-999,-99.99,,,-99.99,,2013-07-24 16:23:00,
2013-07-24 12:43:00,61.0,-99.9,-100.00,NNW,348,7.0,10.0,-999,-99.99,,,-99.99,,2013-07-24 16:43:00,
2013-07-24 12:53:00,61.0,-99.9,-100.00,NNW,348,7.0,10.0,-999,-99.99,,,-99.99,,2013-07-24 16:53:00,
2013-07-24 13:03:00,61.0,-99.9,-100.00,NNW,348,7.0,10.0,-999,-99.99,,,-99.99,,2013-07-24 17:03:00,
2013-07-24 13:22:00,62.0,-99.9,-100.00,North,350,8.0,11.0,-999,-99.99,,,-99.99,,2013-07-24 17:22:00,
2013-07-24 13:33:00,62.0,-99.9,-100.00,North,350,8.0,11.0,-999,-99.99,,,-99.99,,2013-07-24 17:33:00,
2013-07-24 13:43:00,62.0,-99.9,-100.00,North,350,8.0,11.0,-999,-99.99,,,-99.99,,2013-07-24 17:43:00,
2013-07-24 13:53:00,62.0,-99.9,-100.00,North,350,8.0,11.0,-999,-99.99,,,-99.99,,2013-07-24 17:53:00,
2013-07-24 14:03:00,62.0,-99.9,-100.00,North,350,8.0,11.0,-999,-99.99,,,-99.99,,2013-07-24 18:03:00,
2013-07-24 14:22:00,63.0,-99.9,-100.00,NNW,345,8.0,12.0,-999,-99.99,,,-99.99,,2013-07-24 18:22:00,
2013-07-24 14:33:00,63.0,-99.9,-100.00,NNW,345,8.0,12.0,-999,-99.99,,,-99.99,,2013-07-24 18:33:00,
2013-07-24 14:43:00,63.0,-99.9,-100.00,NNW,345,8.0,12.0,-999,-99.99,,,-99.99,,2013-07-24 18:43:00,
2013-07-24 14:52:00,63.0,-99.9,-100.00,NNW,345,8.0,12.0,-999,-99.99,,,-99.99,,2013-07-24 18:52:00,
2013-07-24 15:03:00,63.0,-99.9,-100.00,NNW,345,8.0,12.0,-999,-99.99,,,-99.99,,2013-07-24 19:03:00,
2013-07-24 15:12:00,64.0,-99.9,-100.00,NNW,344,9.0,13.0,-999,-99.99,,,-99.99,,2013-07-24 19:12:00,
2013-07-24 15:22:00,64.0,-99.9,-100.00,NNW,344,9.0,13.0,-999,-99.99,,,-99.99,,2013-07-24 19:22:00,
2013-07-24 15:43:00,64.0,-99.9,-100.00,NNW,344,9.0,13.0,-999,-99.99,,,-99.99,,2013-07-24 19:43:00,
2013-07-24 15:53:00,64.0,-99.9,-100.00,NNW,344,9.0,13.0,-999,-99.99,,,-99.99,,2013-07-24 19:53:00,
2013-07-24 16:13:00,64.0,-99.9,-100.00,NNW,346,9.0,13.0,-999,-99.99,,,-99.99,,2013-07-24 20:13:00,
2013-07-24 16:23:00,64.0,-99.9,-100.00,NNW,346,9.0,13.0,-999,-99.99,,,-99.99,,2013-07-24 20:23:00,
2013-07-24 16:33:00,64.0,-99.9,-100.00,NNW,346,9.0,13.0,-999,-99.99,,,-99.99,,2013-07-24 20:33:00,
2013-07-24 16:43:00,64.0,-99.9,-100.00,NNW,346,9.0,13.0,-999,-99.99,,,-99.99,,2013-07-24 20:43:00,
2013-07-24 16:53:00,64.0,-99.9,-100.00,NNW,346,9.0,13.0,-999,-99.99,,,-99.99,,2013-07-24 20:53:00,
2013-07-24 17:03:00,64.0,-99.9,-100.00,NNW,346,9.0,13.0,-999,-99.99,,,-99.99,,2013-07-24 21:03:00,
2013-07-24 17:12:00,64.0,-99.9,-100.00,NNW,346,9.0,13.0,-999,-99.99,,,-99.99,,2013-07-24 21:12:00,
2013-07-24 17:32:00,64.0,-99.9,-100.00,North,349,8.0,11.0,-999,-99.99,,,-99.99,,2013-07-24 21:32:00,
2013-07-24 17:44:00,64.0,-99.9,-100.00,North,349,8.0,11.0,-999,-99.99,,,-99.99,,2013-07-24 21:44:00,
2013-07-24 17:53:00,64.0,-99.9,-100.00,North,349,8.0,11.0,-999,-99.99,,,-99.99,,2013-07-24 21:53:00,
2013-07-24 18:12:00,64.0,-99.9,-100.00,North,349,8.0,11.0,-999,-99.99,,,-99.99,,2013-07-24 22:12:00,
2013-07-24 18:22:00,64.0,-99.9,-100.00,North,349,8.0,11.0,-999,-99.99,,,-99.99,,2013-07-24 22:22:00,
2013-07-24 18:32:00,63.0,-99.9,-100.00,North,354,9.0,12.0,-999,-99.99,,,-99.99,,2013-07-24 22:32:00,
2013-07-24 18:53:00,63.0,-99.9,-100.00,North,354,9.0,12.0,-999,-99.99,,,-99.99,,2013-07-24 22:53:00,
2013-07-24 19:02:00,63.0,-99.9,-100.00,North,354,9.0,12.0,-999,-99.99,,,-99.99,,2013-07-24 23:02:00,
2013-07-24 19:12:00,64.0,-99.9,-100.00,North,358,10.0,12.0,-999,-99.99,,,-99.99,,2013-07-24 23:12:00,
2013-07-24 19:33:00,64.0,-99.9,-100.00,North,358,10.0,12.0,-999,-99.99,,,-99.99,,2013-07-24 23:33:00,
2013-07-24 19:43:00,64.0,-99.9,-100.00,North,358,10.0,12.0,-999,-99.99,,,-99.99,,2013-07-24 23:43:00,
2013-07-24 19:52:00,64.0,-99.9,-100.00,North,358,10.0,12.0,-999,-99.99,,,-99.99,,2013-07-24 23:52:00,
2013-07-24 20:02:00,64.0,-99.9,-100.00,North,358,10.0,12.0,-999,-99.99,,,-99.99,,2013-07-25 00:02:00,
2013-07-24 20:22:00,65.0,-99.9,-100.00,North,354,9.0,13.0,-999,-99.99,,,-99.99,,2013-07-25 00:22:00,
2013-07-24 20:33:00,65.0,-99.9,-100.00,North,354,9.0,13.0,-999,-99.99,,,-99.99,,2013-07-25 00:33:00,
2013-07-24 20:43:00,65.0,-99.9,-100.00,North,354,9.0,13.0,-999,-99.99,,,-99.99,,2013-07-25 00:43:00,
2013-07-24 20:53:00,65.0,-99.9,-100.00,North,354,9.0,13.0,-999,-99.99,,,-99.99,,2013-07-25 00:53:00,
2013-07-24 21:03:00,65.0,-99.9,-100.00,North,354,9.0,13.0,-999,-99.99,,,-99.99,,2013-07-25 01:03:00,
2013-07-24 21:22:00,64.0,-99.9,-100.00,North,356,8.0,12.0,-999,-99.99,,,-99.99,,2013-07-25 01:22:00,
2013-07-24 21:32:00,64.0,-99.9,-100.00,North,356,8.0,12.0,-999,-99.99,,,-99.99,,2013-07-25 01:32:00,
2013-07-24 21:43:00,64.0,-99.9,-100.00,North,356,8.0,12.0,-999,-99.99,,,-99.99,,2013-07-25 01:43:00,
2013-07-24 22:02:00,64.0,-99.9,-100.00,North,356,8.0,12.0,-999,-99.99,,,-99.99,,2013-07-25 02:02:00,
2013-07-24 22:12:00,63.0,-99.9,-100.00,NNE,17,4.0,10.0,-999,-99.99,,,-99.99,,2013-07-25 02:12:00,
2013-07-24 22:22:00,63.0,-99.9,-100.00,NNE,17,4.0,10.0,-999,-99.99,,,-99.99,,2013-07-25 02:22:00,
2013-07-24 22:33:00,63.0,-99.9,-100.00,NNE,17,4.0,10.0,-999,-99.99,,,-99.99,,2013-07-25 02:33:00,
2013-07-24 22:43:00,63.0,-99.9,-100.00,NNE,17,4.0,10.0,-999,-99.99,,,-99.99,,2013-07-25 02:43:00,
2013-07-24 22:53:00,63.0,-99.9,-100.00,NNE,17,4.0,10.0,-999,-99.99,,,-99.99,,2013-07-25 02:53:00,
2013-07-24 23:02:00,63.0,-99.9,-100.00,NNE,17,4.0,10.0,-999,-99.99,,,-99.99,,2013-07-25 03:02:00,
2013-07-24 23:24:00,63.0,-99.9,-100.00,NNE,23,3.0,9.0,-999,-99.99,,,-99.99,,2013-07-25 03:24:00,
2013-07-24 23:45:00,63.0,-99.9,-100.00,NNE,23,3.0,9.0,-999,-99.99,,,-99.99,,2013-07-25 03:45:00,